• In Österreich
  • Länderverzeichnis
  • Für 7 Tage
  • Wassertemperatur
  • Satellitenkarten
  • Wetterkarte
  • News
  • Widgets
  • user-avatar
    Anmelden

    Stündliche Wetter Djelfa

    Heute, 23 September, Sonntag

    Zeit Temperatur Niederschläge Wind Luftdruck Luftfeuchtigkeit
    00:00 +22°C° 0 mm 1 m/S 671 mmHg 41%
    01:00 +22°C° 0 mm 1 m/S 670 mmHg 42%
    02:00 +22°C° 0 mm 1 m/S 670 mmHg 43%
    03:00 +21°C° 0 mm 1 m/S 670 mmHg 44%
    04:00 +21°C° 0 mm 1 m/S 670 mmHg 44%
    05:00 +21°C° 0 mm 1 m/S 670 mmHg 44%
    06:00 +21°C° 0 mm 1 m/S 670 mmHg 45%
    07:00 +22°C° 0 mm 1 m/S 670 mmHg 41%
    08:00 +23°C° 0 mm 1 m/S 671 mmHg 38%
    09:00 +25°C° 0 mm 1 m/S 671 mmHg 34%
    10:00 +25°C° 0 mm 1 m/S 671 mmHg 32%
    11:00 +26°C° 0 mm 1 m/S 671 mmHg 29%
    12:00 +27°C° 0 mm 1 m/S 671 mmHg 27%
    13:00 +27°C° 0 mm 1 m/S 671 mmHg 26%
    14:00 +28°C° 0 mm 1 m/S 671 mmHg 25%
    15:00 +28°C° 0 mm 1 m/S 671 mmHg 24%
    16:00 +28°C° 0 mm 2 m/S 670 mmHg 25%
    17:00 +28°C° 0 mm 2 m/S 670 mmHg 26%
    18:00 +27°C° 0 mm 2 m/S 670 mmHg 26%
    19:00 +27°C° 0 mm 2 m/S 670 mmHg 29%
    20:00 +26°C° 0 mm 1 m/S 671 mmHg 31%
    21:00 +25°C° 0 mm 1 m/S 671 mmHg 34%
    22:00 +25°C° 0 mm 1 m/S 671 mmHg 35%
    23:00 +24°C° 0 mm 1 m/S 670 mmHg 37%

    Morgen, 24 September, Montag

    Zeit Temperatur Niederschläge Wind Luftdruck Luftfeuchtigkeit
    00:00 +21°C° 0 mm 0 m/S 670 mmHg 39%
    01:00 +21°C° 0 mm 0 m/S 670 mmHg 40%
    02:00 +20°C° 0 mm 0 m/S 669 mmHg 42%
    03:00 +20°C° 0 mm 0 m/S 669 mmHg 43%
    04:00 +20°C° 0 mm 0 m/S 669 mmHg 44%
    05:00 +19°C° 0 mm 0 m/S 669 mmHg 45%
    06:00 +19°C° 0 mm 0 m/S 669 mmHg 46%
    07:00 +23°C° 0 mm 1 m/S 670 mmHg 41%
    08:00 +24°C° 0 mm 1 m/S 670 mmHg 36%
    09:00 +26°C° 0 mm 1 m/S 671 mmHg 31%
    10:00 +27°C° 0 mm 1 m/S 671 mmHg 29%
    11:00 +28°C° 0 mm 1 m/S 671 mmHg 27%
    12:00 +28°C° 0 mm 1 m/S 670 mmHg 24%
    13:00 +29°C° 0 mm 1 m/S 670 mmHg 24%
    14:00 +29°C° 0 mm 2 m/S 670 mmHg 23%
    15:00 +29°C° 0 mm 2 m/S 669 mmHg 22%
    16:00 +29°C° 0 mm 2 m/S 669 mmHg 24%
    17:00 +28°C° 0 mm 2 m/S 669 mmHg 25%
    18:00 +28°C° 0 mm 3 m/S 669 mmHg 26%
    19:00 +27°C° 0 mm 2 m/S 669 mmHg 28%
    20:00 +27°C° 0 mm 2 m/S 670 mmHg 31%
    21:00 +26°C° 0 mm 2 m/S 670 mmHg 33%
    22:00 +25°C° 0 mm 2 m/S 670 mmHg 35%
    23:00 +25°C° 0 mm 2 m/S 669 mmHg 36%

    übermorgen, 25 September, Dienstag

    Zeit Temperatur Niederschläge Wind Luftdruck Luftfeuchtigkeit
    00:00 +24°C° 0 mm 2 m/S 669 mmHg 38%
    01:00 +24°C° 0 mm 1 m/S 669 mmHg 39%
    02:00 +23°C° 0 mm 1 m/S 669 mmHg 41%
    03:00 +23°C° 0 mm 1 m/S 668 mmHg 42%
    04:00 +22°C° 0 mm 1 m/S 668 mmHg 43%
    05:00 +22°C° 0 mm 1 m/S 668 mmHg 45%
    06:00 +22°C° 0 mm 1 m/S 668 mmHg 46%
    07:00 +23°C° 0 mm 1 m/S 669 mmHg 41%
    08:00 +25°C° 0 mm 1 m/S 670 mmHg 36%
    09:00 +26°C° 0 mm 1 m/S 670 mmHg 32%
    10:00 +27°C° 0 mm 1 m/S 670 mmHg 29%
    11:00 +28°C° 0 mm 1 m/S 670 mmHg 27%
    12:00 +29°C° 0 mm 2 m/S 670 mmHg 25%
    13:00 +29°C° 0 mm 2 m/S 670 mmHg 24%
    14:00 +29°C° 0 mm 2 m/S 669 mmHg 24%
    15:00 +29°C° 0 mm 2 m/S 669 mmHg 23%
    16:00 +29°C° 0 mm 2 m/S 669 mmHg 25%
    17:00 +29°C° 0 mm 3 m/S 669 mmHg 26%
    18:00 +28°C° 0 mm 3 m/S 669 mmHg 27%
    19:00 +27°C° 0.2 mm 3 m/S 669 mmHg 30%
    20:00 +27°C° 0.2 mm 3 m/S 670 mmHg 33%
    21:00 +26°C° 0.2 mm 3 m/S 670 mmHg 36%
    22:00 +25°C° 0 mm 3 m/S 670 mmHg 39%
    23:00 +25°C° 0 mm 3 m/S 670 mmHg 43%

    26 September, Mittwoch

    Zeit Temperatur Niederschläge Wind Luftdruck Luftfeuchtigkeit
    00:00 +24°C° 0 mm 3 m/S 670 mmHg 46%
    01:00 +22°C° 0 mm 3 m/S 669 mmHg 49%
    02:00 +23°C° 0 mm 2 m/S 669 mmHg 52%
    03:00 +21°C° 0 mm 2 m/S 669 mmHg 55%
    04:00 +21°C° 0.3 mm 2 m/S 669 mmHg 57%
    05:00 +20°C° 0.3 mm 2 m/S 669 mmHg 60%
    06:00 +20°C° 0.3 mm 2 m/S 669 mmHg 62%
    07:00 +21°C° 0.1 mm 2 m/S 670 mmHg 58%
    08:00 +22°C° 0.1 mm 3 m/S 670 mmHg 54%
    09:00 +24°C° 0.1 mm 3 m/S 671 mmHg 50%
    10:00 +25°C° 0.8 mm 3 m/S 671 mmHg 47%
    11:00 +25°C° 0.8 mm 2 m/S 671 mmHg 44%
    12:00 +26°C° 0.8 mm 2 m/S 671 mmHg 41%
    13:00 +27°C° 0 mm 2 m/S 670 mmHg 39%
    14:00 +27°C° 0 mm 2 m/S 670 mmHg 37%
    15:00 +27°C° 0 mm 2 m/S 670 mmHg 35%
    16:00 +27°C° 0.1 mm 2 m/S 670 mmHg 37%
    17:00 +26°C° 0.1 mm 3 m/S 670 mmHg 38%
    18:00 +26°C° 0.1 mm 4 m/S 671 mmHg 40%
    19:00 +25°C° 0.7 mm 4 m/S 671 mmHg 45%
    20:00 +23°C° 0.7 mm 5 m/S 671 mmHg 49%
    21:00 +23°C° 0.7 mm 6 m/S 671 mmHg 54%
    22:00 +22°C° 1.2 mm 5 m/S 671 mmHg 56%
    23:00 +22°C° 1.2 mm 5 m/S 671 mmHg 57%

    27 September, Donnerstag

    Zeit Temperatur Niederschläge Wind Luftdruck Luftfeuchtigkeit
    00:00 +21°C° 1.2 mm 4 m/S 671 mmHg 59%
    01:00 +21°C° 0.6 mm 4 m/S 671 mmHg 61%
    02:00 +21°C° 0.6 mm 4 m/S 671 mmHg 63%
    03:00 +20°C° 0.6 mm 4 m/S 670 mmHg 65%
    04:00 +20°C° 1.1 mm 5 m/S 671 mmHg 67%
    05:00 +19°C° 1.1 mm 5 m/S 671 mmHg 69%
    06:00 +19°C° 1.1 mm 5 m/S 671 mmHg 71%
    07:00 +20°C° 0.6 mm 5 m/S 671 mmHg 68%
    08:00 +20°C° 0.6 mm 5 m/S 671 mmHg 66%
    09:00 +21°C° 0.6 mm 5 m/S 672 mmHg 63%
    10:00 +22°C° 0.1 mm 5 m/S 671 mmHg 59%
    11:00 +22°C° 0.1 mm 5 m/S 671 mmHg 54%
    12:00 +23°C° 0.1 mm 5 m/S 671 mmHg 49%
    13:00 +25°C° 0 mm 4 m/S 671 mmHg 47%
    14:00 +25°C° 0 mm 4 m/S 671 mmHg 45%
    15:00 +25°C° 0 mm 4 m/S 670 mmHg 43%
    16:00 +25°C° 0 mm 4 m/S 670 mmHg 44%
    17:00 +23°C° 0 mm 4 m/S 670 mmHg 46%
    18:00 +23°C° 0 mm 4 m/S 670 mmHg 48%
    19:00 +22°C° 0 mm 4 m/S 670 mmHg 50%
    20:00 +22°C° 0 mm 3 m/S 670 mmHg 52%
    21:00 +21°C° 0 mm 3 m/S 670 mmHg 54%
    22:00 +21°C° 0 mm 3 m/S 670 mmHg 55%
    23:00 +20°C° 0 mm 2 m/S 669 mmHg 56%

    28 September, Freitag

    Zeit Temperatur Niederschläge Wind Luftdruck Luftfeuchtigkeit
    00:00 +21°C° 0 mm 1 m/S 669 mmHg 58%
    01:00 +21°C° 0 mm 1 m/S 669 mmHg 59%
    02:00 +20°C° 0 mm 1 m/S 668 mmHg 60%
    03:00 +20°C° 0 mm 1 m/S 668 mmHg 61%
    04:00 +20°C° 0 mm 1 m/S 668 mmHg 63%
    05:00 +20°C° 0 mm 1 m/S 668 mmHg 64%
    06:00 +19°C° 0 mm 1 m/S 668 mmHg 65%
    07:00 +20°C° 0 mm 1 m/S 669 mmHg 61%
    08:00 +21°C° 0 mm 1 m/S 669 mmHg 57%
    09:00 +22°C° 0 mm 1 m/S 669 mmHg 53%
    10:00 +23°C° 0 mm 1 m/S 669 mmHg 50%
    11:00 +24°C° 0 mm 1 m/S 669 mmHg 46%
    12:00 +25°C° 0 mm 1 m/S 669 mmHg 43%
    13:00 +25°C° 0 mm 1 m/S 668 mmHg 42%
    14:00 +25°C° 0 mm 1 m/S 668 mmHg 41%
    15:00 +26°C° 0 mm 1 m/S 667 mmHg 40%
    16:00 +25°C° 0.1 mm 1 m/S 667 mmHg 41%
    17:00 +25°C° 0.1 mm 1 m/S 668 mmHg 41%
    18:00 +25°C° 0.1 mm 1 m/S 668 mmHg 41%
    19:00 +25°C° 0.1 mm 1 m/S 668 mmHg 43%
    20:00 +24°C° 0.1 mm 1 m/S 668 mmHg 44%
    21:00 +24°C° 0.1 mm 1 m/S 668 mmHg 46%
    22:00 +23°C° 0 mm 1 m/S 668 mmHg 48%
    23:00 +23°C° 0 mm 1 m/S 667 mmHg 50%
    Mehr zeigen